When you browse on this site, cookies collect data to enhance your experience and personalize the content and advertising you see.
Visit our Privacy Policy to learn more. By continuing to use the site, you agree to this use of cookies and data.
  • In Österreich
  • Länderverzeichnis
  • Für 7 Tage
  • Wassertemperatur
  • Satellitenkarten
  • Wetterkarte
  • News
  • Widgets
  • user-avatar
    Anmelden

    Stündliche Wetter Cykowo

    Heute, 17 Februar, Sonntag

    Zeit Temperatur Niederschläge Wind Luftdruck Luftfeuchtigkeit
    00:00 +4°C° 0 mm 3 m/S 762 mmHg 80%
    01:00 +4°C° 0 mm 3 m/S 762 mmHg 83%
    02:00 +3°C° 0 mm 3 m/S 762 mmHg 84%
    03:00 +3°C° 0 mm 3 m/S 761 mmHg 86%
    04:00 +3°C° 0 mm 3 m/S 761 mmHg 87%
    05:00 +2°C° 0 mm 3 m/S 761 mmHg 88%
    06:00 +2°C° 0 mm 3 m/S 762 mmHg 89%
    07:00 +2°C° 0 mm 3 m/S 762 mmHg 89%
    08:00 +3°C° 0 mm 3 m/S 762 mmHg 85%
    09:00 +4°C° 0 mm 3 m/S 762 mmHg 80%
    10:00 +7°C° 0 mm 3 m/S 762 mmHg 76%
    11:00 +8°C° 0 mm 3 m/S 762 mmHg 71%
    12:00 +9°C° 0 mm 3 m/S 762 mmHg 66%
    13:00 +12°C° 0 mm 2 m/S 762 mmHg 61%
    14:00 +10°C° 0 mm 2 m/S 761 mmHg 62%
    15:00 +10°C° 0 mm 2 m/S 761 mmHg 63%
    16:00 +11°C° 0 mm 1 m/S 761 mmHg 65%
    17:00 +10°C° 0 mm 1 m/S 761 mmHg 68%
    18:00 +9°C° 0 mm 1 m/S 761 mmHg 71%
    19:00 +8°C° 0 mm 1 m/S 761 mmHg 74%
    20:00 +7°C° 0 mm 1 m/S 761 mmHg 75%
    21:00 +7°C° 0 mm 1 m/S 761 mmHg 76%
    22:00 +7°C° 0 mm 1 m/S 761 mmHg 76%
    23:00 +6°C° 0 mm 1 m/S 761 mmHg 78%

    Morgen, 18 Februar, Montag

    Zeit Temperatur Niederschläge Wind Luftdruck Luftfeuchtigkeit
    00:00 +5°C° 0 mm 2 m/S 761 mmHg 79%
    01:00 +5°C° 0 mm 2 m/S 760 mmHg 80%
    02:00 +4°C° 0 mm 2 m/S 760 mmHg 80%
    03:00 +4°C° 0 mm 2 m/S 760 mmHg 80%
    04:00 +4°C° 0 mm 2 m/S 760 mmHg 80%
    05:00 +3°C° 0 mm 2 m/S 760 mmHg 79%
    06:00 +3°C° 0 mm 2 m/S 759 mmHg 78%
    07:00 +3°C° 0 mm 2 m/S 759 mmHg 77%
    08:00 +4°C° 0 mm 2 m/S 759 mmHg 72%
    09:00 +5°C° 0 mm 2 m/S 759 mmHg 67%
    10:00 +7°C° 0 mm 2 m/S 759 mmHg 62%
    11:00 +8°C° 0 mm 2 m/S 759 mmHg 57%
    12:00 +9°C° 0 mm 2 m/S 759 mmHg 53%
    13:00 +12°C° 0 mm 2 m/S 759 mmHg 48%
    14:00 +10°C° 0 mm 2 m/S 758 mmHg 50%
    15:00 +10°C° 0 mm 2 m/S 758 mmHg 52%
    16:00 +10°C° 0 mm 2 m/S 758 mmHg 53%
    17:00 +9°C° 0 mm 2 m/S 758 mmHg 56%
    18:00 +8°C° 0 mm 2 m/S 758 mmHg 59%
    19:00 +6°C° 0 mm 2 m/S 758 mmHg 61%
    20:00 +6°C° 0 mm 2 m/S 757 mmHg 64%
    21:00 +6°C° 0 mm 2 m/S 757 mmHg 66%
    22:00 +5°C° 0 mm 2 m/S 757 mmHg 68%
    23:00 +5°C° 0 mm 2 m/S 757 mmHg 69%

    übermorgen, 19 Februar, Dienstag

    Zeit Temperatur Niederschläge Wind Luftdruck Luftfeuchtigkeit
    00:00 +3°C° 0 mm 3 m/S 757 mmHg 69%
    01:00 +3°C° 0 mm 3 m/S 757 mmHg 69%
    02:00 +3°C° 0 mm 3 m/S 757 mmHg 71%
    03:00 +2°C° 0 mm 3 m/S 756 mmHg 73%
    04:00 +2°C° 0 mm 3 m/S 756 mmHg 74%
    05:00 +2°C° 0 mm 3 m/S 756 mmHg 77%
    06:00 +2°C° 0 mm 3 m/S 756 mmHg 79%
    07:00 +1°C° 0 mm 3 m/S 756 mmHg 81%
    08:00 +3°C° 0 mm 4 m/S 756 mmHg 75%
    09:00 +5°C° 0 mm 4 m/S 756 mmHg 68%
    10:00 +6°C° 0 mm 5 m/S 756 mmHg 61%
    11:00 +7°C° 0 mm 5 m/S 755 mmHg 58%
    12:00 +9°C° 0 mm 5 m/S 755 mmHg 54%
    13:00 +10°C° 0 mm 6 m/S 755 mmHg 51%
    14:00 +10°C° 0 mm 5 m/S 755 mmHg 54%
    15:00 +10°C° 0 mm 5 m/S 755 mmHg 57%
    16:00 +10°C° 0 mm 4 m/S 755 mmHg 60%
    17:00 +8°C° 0.1 mm 5 m/S 755 mmHg 68%
    18:00 +7°C° 0.1 mm 5 m/S 755 mmHg 75%
    19:00 +6°C° 0.1 mm 5 m/S 756 mmHg 83%
    20:00 +6°C° 0 mm 5 m/S 756 mmHg 84%
    21:00 +5°C° 0 mm 4 m/S 757 mmHg 86%
    22:00 +5°C° 0 mm 4 m/S 757 mmHg 87%
    23:00 +4°C° 0 mm 4 m/S 757 mmHg 87%

    20 Februar, Mittwoch

    Zeit Temperatur Niederschläge Wind Luftdruck Luftfeuchtigkeit
    00:00 +4°C° 0 mm 4 m/S 757 mmHg 86%
    01:00 +4°C° 0 mm 4 m/S 758 mmHg 86%
    02:00 +4°C° 0 mm 4 m/S 758 mmHg 88%
    03:00 +3°C° 0 mm 4 m/S 758 mmHg 90%
    04:00 +3°C° 0 mm 4 m/S 758 mmHg 92%
    05:00 +1°C° 0 mm 4 m/S 758 mmHg 92%
    06:00 +1°C° 0 mm 4 m/S 758 mmHg 93%
    07:00 +1°C° 0 mm 5 m/S 758 mmHg 93%
    08:00 +2°C° 0 mm 5 m/S 759 mmHg 89%
    09:00 +3°C° 0 mm 5 m/S 759 mmHg 84%
    10:00 +4°C° 0 mm 6 m/S 759 mmHg 80%
    11:00 +4°C° 0 mm 6 m/S 759 mmHg 75%
    12:00 +5°C° 0 mm 6 m/S 759 mmHg 70%
    13:00 +7°C° 0 mm 6 m/S 759 mmHg 64%
    14:00 +7°C° 0 mm 6 m/S 759 mmHg 65%
    15:00 +7°C° 0 mm 5 m/S 759 mmHg 66%
    16:00 +7°C° 0 mm 4 m/S 759 mmHg 67%
    17:00 +7°C° 0 mm 4 m/S 759 mmHg 71%
    18:00 +6°C° 0 mm 4 m/S 760 mmHg 74%
    19:00 +5°C° 0 mm 3 m/S 760 mmHg 78%
    20:00 +5°C° 0 mm 3 m/S 760 mmHg 79%
    21:00 +5°C° 0 mm 3 m/S 760 mmHg 81%
    22:00 +5°C° 0 mm 3 m/S 760 mmHg 82%
    23:00 +4°C° 0 mm 3 m/S 760 mmHg 84%

    21 Februar, Donnerstag

    Zeit Temperatur Niederschläge Wind Luftdruck Luftfeuchtigkeit
    00:00 +4°C° 0 mm 3 m/S 760 mmHg 85%
    01:00 +3°C° 0 mm 3 m/S 760 mmHg 87%
    02:00 +4°C° 0.1 mm 3 m/S 760 mmHg 86%
    03:00 +4°C° 0.1 mm 3 m/S 760 mmHg 86%
    04:00 +4°C° 0.1 mm 4 m/S 759 mmHg 85%
    05:00 +4°C° 0 mm 4 m/S 759 mmHg 86%
    06:00 +4°C° 0 mm 4 m/S 759 mmHg 87%
    07:00 +4°C° 0 mm 4 m/S 759 mmHg 88%
    08:00 +3°C° 0 mm 5 m/S 759 mmHg 85%
    09:00 +5°C° 0 mm 5 m/S 759 mmHg 81%
    10:00 +5°C° 0 mm 6 m/S 758 mmHg 78%
    11:00 +5°C° 0.5 mm 6 m/S 758 mmHg 79%
    12:00 +5°C° 0.5 mm 6 m/S 758 mmHg 81%
    13:00 +5°C° 0.5 mm 6 m/S 758 mmHg 82%
    14:00 +5°C° 0.1 mm 6 m/S 758 mmHg 83%
    15:00 +6°C° 0.1 mm 5 m/S 758 mmHg 84%
    16:00 +7°C° 0.1 mm 5 m/S 758 mmHg 85%
    17:00 +6°C° 0.2 mm 5 m/S 758 mmHg 87%
    18:00 +6°C° 0.2 mm 5 m/S 759 mmHg 88%
    19:00 +6°C° 0.2 mm 5 m/S 759 mmHg 90%
    20:00 +6°C° 0 mm 5 m/S 759 mmHg 89%
    21:00 +6°C° 0 mm 5 m/S 759 mmHg 89%
    22:00 +6°C° 0 mm 5 m/S 760 mmHg 88%
    23:00 +6°C° 0.1 mm 5 m/S 760 mmHg 88%

    22 Februar, Freitag

    Zeit Temperatur Niederschläge Wind Luftdruck Luftfeuchtigkeit
    00:00 +6°C° 0.1 mm 5 m/S 759 mmHg 88%
    01:00 +6°C° 0.1 mm 5 m/S 759 mmHg 88%
    02:00 +5°C° 0.5 mm 6 m/S 759 mmHg 88%
    03:00 +5°C° 0.5 mm 6 m/S 759 mmHg 88%
    04:00 +5°C° 0.5 mm 7 m/S 759 mmHg 88%
    05:00 +4°C° 0.2 mm 7 m/S 760 mmHg 87%
    06:00 +4°C° 0.2 mm 7 m/S 760 mmHg 86%
    07:00 +4°C° 0.2 mm 7 m/S 760 mmHg 85%
    08:00 +4°C° 0.1 mm 7 m/S 761 mmHg 82%
    09:00 +3°C° 0.1 mm 7 m/S 762 mmHg 80%
    10:00 +3°C° 0.1 mm 7 m/S 763 mmHg 77%
    11:00 +2°C° 0 mm 6 m/S 764 mmHg 74%
    12:00 +2°C° 0 mm 6 m/S 765 mmHg 71%
    13:00 +2°C° 0 mm 6 m/S 766 mmHg 68%
    14:00 +1°C° 0 mm 6 m/S 767 mmHg 67%
    15:00 +1°C° 0 mm 5 m/S 768 mmHg 65%
    16:00 +1°C° 0 mm 5 m/S 769 mmHg 63%
    17:00 0°C° 0 mm 5 m/S 769 mmHg 65%
    18:00 -1°C° 0 mm 4 m/S 770 mmHg 67%
    19:00 -1°C° 0 mm 3 m/S 771 mmHg 68%
    20:00 -2°C° 0 mm 4 m/S 772 mmHg 67%
    21:00 -3°C° 0 mm 4 m/S 773 mmHg 65%
    22:00 -3°C° 0 mm 4 m/S 773 mmHg 64%
    23:00 -4°C° 0 mm 4 m/S 774 mmHg 61%
    Mehr zeigen